Location: Ailly
(50.0793°N, 1.9944°E)
Time: 09:25:25
(UTC+00:00)

BREEZE M DEB (TANK) - Pass Details

Date: 15 January 2026
Orbit: 287 x 11206 km, 49.5° (Epoch: 16 February)

Event Time Altitude Azimuth Distance (km) Brightness Sun altitude
Exits shadow 05:19:10 53° 180° (S) 644 2.6 -22.7°
Drops below altitude 10° 05:24:33 10° 118° (ESE) 2,953 7.0 -21.8°
Sets 05:29:20 0° 115° (ESE) 5,124 8.6 -21.1°
